Regional Weather Roundup
Issued by NWS New Orleans/Baton Rouge, LA

Home | Current Version | Previous Version | Text Only | Print | Product List | Glossary On
Versions: 1 2 3 4 5 6 7 8 9 10 11 12 13 14 15 16 17 18 19 20 21 22 23 24 25 26 27 28 29 30 31 32 33 34 35 36 37 38 39 40 41 42 43 44 45 46 47 48 49 50
435
ASUS44 KLIX 191310
RWRLIX
NEW ORLEANS REGIONAL WEATHER ROUNDUP
NATIONAL WEATHER SERVICE NEW ORLEANS LA
700 AM CST FRI DEC 19 2014

NOTE: "FAIR" INDICATES FEW OR NO CLOUDS BELOW 12,000 FEET WITH NO
      SIGNIFICANT WEATHER AND/OR OBSTRUCTIONS TO VISIBILITY.
      SKY/WX - SKY CONDITION AND SIGNIFICANT WEATHER.
      TMP - AIR TEMPERATURE.     DP    - DEWPOINT TEMPERATURE.
      RH  - RELATIVE HUMIDITY.   PRES  - PRESSURE.
      HI  - HEAT INDEX.          WCI   - WIND CHILL INDEX.

*  THESE STATIONS ARE NOT NWS OR FAA STATIONS AND ARE NOT UNDER
   NWS QUALITY CONTROL.

LAZ038-040-048-061>063-065>067-069-191400-
SOUTHEAST LOUISIANA

CITY           SKY/WX    TMP DP  RH WIND       PRES   REMARKS
N.O. AUDUBON     N/A     60  52  75 MISG        N/A
N.O. INTL ARPT CLOUDY    57  51  80 NE8       30.12R
N.O. LAKEFRONT CLOUDY    58  51  78 E12       30.13R
N.O. DOWNTOWN* CLOUDY    57  48  72 NE7       30.12R
SLIDELL        HVY RAIN  54  52  93 N8        30.13R FOG
BATON ROUGE    HVY RAIN  54  53  97 E3        30.15R FOG
BOOTHVILLE     CLOUDY    61  58  90 E8        30.09R
BELLE CHASSE   LGT RAIN  56  54  93 NE7       30.11R
BOGALUSA*      TSTM      52  49  89 NE9       30.13F
GALLIANO*      CLOUDY    61  59  94 MISG      30.09R
NEW ROADS*     LGT RAIN  54  53  97 NE5       30.13S
GONZALES*      CLOUDY    55  55 100 N6        30.14R
HAMMOND*       NOT AVBL
HOUMA*         CLOUDY    57  55  94 N7        30.10R
PORT FOURCHON* PTSUNNY   64  61  88 NE8       30.10R

$$

MSZ070-080>082-191400-
SOUTHERN MISSISSIPPI

CITY           SKY/WX    TMP DP  RH WIND       PRES   REMARKS
MCCOMB         RAIN      49  46  90 NE7       30.15R FOG
GULFPORT       LGT RAIN  51  48  89 NE9       30.12R
BILOXI         LGT RAIN  51  51 100 NE10      30.11R
PASCAGOULA     RAIN      50  47  89 E5        30.13R
STENNIS ARPT*  TSTM      52  48  87 N12G17    30.14

$$

COASTAL OBSERVATIONS
LAKE AND NEARSHORE STATIONS

STATION/POSITION TIME  TEMP    WIND        PRES    WAVE
                       AIR SEA DIR/SP/G            HT/PER
                 (UTC) (F)     (DEG/KT/KT) (MB)    (FT/S)
PASCAGOULA       1300   52      50/ 10/ 13 1019.3
WAVELAND YACHT   1300   53      50/ 13/ 16 1018.3
GRAND ISLE       1300   61 62   70/  9/ 12 1018.9
SOUTHWEST PASS   1300   63                 1018.0
NEW CANAL        1300   57 58   80/  7/ 10 1019.9
SHELL BEACH      1300   58 60   70/ 14/ 17 1018.8

OFFSHORE STATIONS

STATION/POSITION TIME  TEMP    WIND        PRES    WAVE
                       AIR SEA DIR/SP/G            HT/PER
                 (UTC) (F)     (DEG/KT/KT) (MB)    (FT/S)
64 S DAUPHIN ISL 1300   69 75   90/ 16/ 21 1018.1    2/ 4

$$




USA.gov is the U.S. government's official web portal to all federal, state and local government web resources and services.